Location: Newark
(34.3481°N, 134.0494°E)
Time: 11:26:49
(UTC+00:00)

Vanguard 2 - All Passes

Search period start: 20 January 2020 00:00
Search period end: 30 January 2020 00:00
Orbit: 553 x 2938 km, 32.9° (Epoch: 19 January)

Date Brightness Start Highest point End Pass type
(mag) Time Alt. Az. Time Alt. Az. Time Alt. Az.
20 Jan - 02:04:25 10° SW 02:14:33 33° SSE 02:21:09 10° E daylight
20 Jan - 04:15:07 10° WSW 04:23:56 62° SSE 04:29:18 10° E daylight
20 Jan - 06:26:26 10° W 06:32:31 76° S 06:36:46 10° E daylight
20 Jan - 08:36:31 10° W 08:40:25 32° SSW 08:43:58 10° SE daylight
21 Jan - 00:13:35 10° S 00:22:17 19° SSE 00:28:59 10° ESE daylight
21 Jan - 02:21:40 10° SW 02:32:35 42° SSE 02:39:22 10° E daylight
21 Jan - 04:33:10 10° WSW 04:41:54 72° S 04:47:11 10° E daylight
21 Jan - 06:44:32 10° W 06:50:26 68° S 06:54:36 10° ESE daylight
21 Jan - 08:54:51 10° WSW 08:58:08 22° SSW 09:01:13 10° SSE visible
22 Jan - 00:29:30 10° SSW 00:40:23 26° SSE 00:48:10 10° E daylight
22 Jan - 02:39:15 10° SW 02:50:37 53° SSE 02:57:24 10° E daylight
22 Jan - 04:51:19 10° W 04:59:52 78° S 05:05:03 10° E daylight
22 Jan - 07:02:39 10° W 07:08:17 56° SSW 07:12:21 10° ESE daylight
22 Jan - 09:13:41 10° WSW 09:15:48 14° SSW 09:17:51 10° S visible
22 Jan - 22:41:44 10° SSE 22:47:30 13° SE 22:52:37 10° ESE daylight
23 Jan - 00:46:07 10° SSW 00:58:28 34° SSE 01:06:46 10° E daylight
23 Jan - 02:57:06 10° WSW 03:08:37 63° SSE 03:15:22 10° E daylight
23 Jan - 05:09:30 10° W 05:17:49 80° S 05:22:55 10° E daylight
23 Jan - 07:20:48 10° W 07:26:04 42° SSW 07:30:00 10° SE daylight
23 Jan - 22:55:43 10° S 23:05:37 19° SSE 23:13:37 10° ESE daylight
24 Jan - 01:03:13 10° SW 01:16:32 43° SSE 01:25:03 10° E daylight
24 Jan - 03:15:08 10° WSW 03:26:36 72° S 03:33:16 10° E daylight
24 Jan - 05:27:42 10° W 05:35:46 76° S 05:40:45 10° ESE daylight
24 Jan - 07:39:03 10° W 07:43:46 30° SSW 07:47:26 10° SE daylight
24 Jan - 23:11:21 10° SSW 23:23:40 26° SSE 23:33:03 10° E daylight
25 Jan - 01:20:41 10° SW 01:34:34 53° SSE 01:43:09 10° E daylight
25 Jan - 03:33:18 10° WSW 03:44:37 78° S 03:51:09 10° E daylight
25 Jan - 05:45:54 10° W 05:53:41 68° SSW 05:58:33 10° ESE daylight
25 Jan - 07:57:33 10° W 08:01:22 20° SSW 08:04:31 10° SSE daylight
25 Jan - 21:25:30 10° SSE 21:30:26 12° SE 21:35:04 10° ESE visible
25 Jan - 23:27:45 10° SSW 23:41:43 34° SSE 23:51:49 10° E daylight
26 Jan - 01:38:26 10° WSW 01:52:36 62° SSE 02:01:09 10° E daylight
26 Jan - 03:51:34 10° W 04:02:38 82° S 04:09:02 10° E daylight
26 Jan - 06:04:06 10° W 06:11:31 56° SSW 06:16:15 10° ESE daylight
26 Jan - 08:16:41 10° WSW 08:18:53 13° SW 08:20:51 10° S daylight
26 Jan - 21:38:26 10° S 21:48:27 18° SE 21:57:11 10° ESE visible
26 Jan - 23:44:40 10° SW 23:59:44 43° SSE 00:10:13 10° E daylight
27 Jan - 01:56:24 10° WSW 02:10:39 71° SSE 02:19:06 10° E daylight
27 Jan - 04:09:50 10° W 04:20:38 81° S 04:26:53 10° E daylight
27 Jan - 06:22:20 10° W 06:29:15 43° SSW 06:33:49 10° SE daylight
27 Jan - 21:53:39 10° S 22:06:25 25° SE 22:17:03 10° E daylight
28 Jan - 00:01:57 10° SW 00:17:46 52° SSE 00:28:24 10° E daylight
28 Jan - 02:14:33 10° WSW 02:28:42 78° S 02:37:00 10° E daylight
28 Jan - 04:28:07 10° W 04:38:37 76° S 04:44:43 10° ESE daylight
28 Jan - 06:40:41 10° W 06:46:53 31° SSW 06:51:10 10° SSE daylight
28 Jan - 22:09:47 10° SSW 22:24:21 33° SSE 22:36:06 10° E daylight
29 Jan - 00:19:33 10° SW 00:35:49 61° SSE 00:46:29 10° E daylight
29 Jan - 02:32:48 10° W 02:46:47 82° S 02:54:55 10° E daylight
29 Jan - 04:46:24 10° W 04:56:32 68° SSW 05:02:29 10° ESE daylight
29 Jan - 06:59:17 10° W 07:04:22 22° SW 07:08:10 10° SSE daylight
29 Jan - 20:22:18 10° SSE 20:31:00 16° SE 20:39:17 10° ESE visible
29 Jan - 22:26:28 10° SSW 22:42:18 41° SSE 22:54:41 10° E daylight
